Tillbaka till svenska Fidonet
English   Information   Debug  
FILM   0/18
FNEWS_PUBLISH   4983
FN_SYSOP   42232
FN_SYSOP_OLD1   71952
FTP_FIDO   0/2
FTSC_PUBLIC   0/13976
FUNNY   0/4886
GENEALOGY.EUR   0/71
GET_INFO   105
GOLDED   0/408
HAM   2277/16715
HOLYSMOKE   0/6791
HOT_SITES   0/1
HTMLEDIT   0/71
HUB203   466
HUB_100   264
HUB_400   39
HUMOR   0/29
IC   0/2851
INTERNET   0/424
INTERUSER   0/3
IP_CONNECT   719
JAMNNTPD   0/233
JAMTLAND   0/47
KATTY_KORNER   0/41
LAN   0/16
LINUX-USER   0/19
LINUXHELP   0/1155
LINUX   0/22386
LINUX_BBS   0/957
mail   18.68
mail_fore_ok   249
MENSA   0/341
MODERATOR   0/102
MONTE   0/992
MOSCOW_OKLAHOMA   0/1245
MUFFIN   0/783
MUSIC   0/321
N203_STAT   938
N203_SYSCHAT   313
NET203   321
NET204   69
NET_DEV   0/10
NORD.ADMIN   0/101
NORD.CHAT   1982/2572
NORD.FIDONET   189
NORD.HARDWARE   0/28
NORD.KULTUR   0/114
NORD.PROG   0/32
NORD.SOFTWARE   0/88
NORD.TEKNIK   0/58
NORD   0/453
OCCULT_CHAT   0/93
OS2BBS   0/787
OS2DOSBBS   0/580
OS2HW   0/42
OS2INET   0/37
OS2LAN   0/134
OS2PROG   0/36
OS2REXX   0/113
OS2USER-L   207
OS2   0/4831
OSDEBATE   0/18996
PASCAL   0/490
PERL   0/457
PHP   0/45
POINTS   0/405
POLITICS   27813/29554
POL_INC   1399/14731
PSION   103
R20_ADMIN   1133
R20_AMATORRADIO   0/2
R20_BEST_OF_FIDONET   16
R20_CHAT   0/897
R20_DEPP   0/3
R20_DEV   400
R20_ECHO2   1889
R20_ECHOPRES   0/35
R20_ESTAT   0/719
R20_FIDONETPROG...
...RAM.MYPOINT
  0/2
R20_FIDONETPROGRAM   0/22
R20_FIDONET   0/248
R20_FILEFIND   0/24
R20_FILEFOUND   0/22
R20_HIFI   0/3
R20_INFO2   3782
R20_INTERNET   0/12940
R20_INTRESSE   0/60
R20_INTR_KOM   0/99
R20_KANDIDAT.CHAT   42
R20_KANDIDAT   28
R20_KOM_DEV   112
R20_KONTROLL   0/13360
R20_KORSET   0/18
R20_LOKALTRAFIK   0/24
R20_MODERATOR   0/1852
R20_NC   76
R20_NET200   245
R20_NETWORK.OTH...
...ERNETS
  0/13
R20_OPERATIVSYS...
...TEM.LINUX
  0/44
R20_PROGRAMVAROR   0/1
R20_REC2NEC   534
R20_SFOSM   0/341
R20_SF   0/108
R20_SPRAK.ENGLISH   0/1
R20_SQUISH   107
R20_TEST   2
R20_WORST_OF_FIDONET   20
RAR   0/9
RA_MULTI   106
RA_UTIL   0/162
REGCON.EUR   0/2069
REGCON   0/13
SCIENCE   0/1206
SF   0/239
SHAREWARE_SUPPORT   0/5146
SHAREWRE   0/14
SIMPSONS   0/169
STATS_OLD1   1191/2539.065
STATS_OLD2   0/2530
STATS_OLD3   0/2395.095
STATS_OLD4   0/1692.25
SURVIVOR   0/495
SYSOPS_CORNER   0/3
SYSOP   27/84
TAGLINES   0/112
TEAMOS2   0/4530
TECH   0/2617
TEST.444   0/105
TRAPDOOR   0/19
TREK   0/755
TUB   0/290
UFO   0/40
UNIX   0/1316
USA_EURLINK   0/102
USR_MODEMS   0/1
VATICAN   0/2740
VIETNAM_VETS   0/14
VIRUS   0/378
VIRUS_INFO   0/201
VISUAL_BASIC   0/473
WHITEHOUSE   0/5187
WIN2000   0/101
WIN32   0/30
WIN95   0/4291
WIN95_OLD1   3/70272
WINDOWS   0/1517
WWB_SYSOP   0/419
WWB_TECH   0/810
ZCC-PUBLIC   0/1
ZEC   4

 
4DOS   0/134
ABORTION   0/7
ALASKA_CHAT   0/506
ALLFIX_FILE   0/1313
ALLFIX_FILE_OLD1   0/7997
ALT_DOS   0/152
AMATEUR_RADIO   0/1039
AMIGASALE   0/14
AMIGA   0/331
AMIGA_INT   0/1
AMIGA_PROG   0/20
AMIGA_SYSOP   0/26
ANIME   0/15
ARGUS   0/924
ASCII_ART   0/340
ASIAN_LINK   0/651
ASTRONOMY   0/417
AUDIO   0/92
AUTOMOBILE_RACING   0/105
BABYLON5   0/17862
BAG   135
BATPOWER   0/361
BBBS.ENGLISH   0/382
BBSLAW   0/109
BBS_ADS   0/5290
BBS_INTERNET   0/507
BIBLE   799/3563
BINKD   0/1119
BINKLEY   0/215
BLUEWAVE   0/2173
CABLE_MODEMS   0/25
CBM   0/46
CDRECORD   0/66
CDROM   0/20
CLASSIC_COMPUTER   0/378
COMICS   0/15
CONSPRCY   0/899
COOKING   42010
COOKING_OLD1   0/24719
COOKING_OLD2   31285/40862
COOKING_OLD3   0/37489
COOKING_OLD4   12021/35496
COOKING_OLD5   9370
C_ECHO   0/189
C_PLUSPLUS   0/31
DIRTY_DOZEN   153/201
DOORGAMES   0/2333
DOS_INTERNET   0/196
duplikat   6102
ECHOLIST   11143/18295
EC_SUPPORT   17/318
ELECTRONICS   0/359
ELEKTRONIK.GER   1534
ENET.LINGUISTIC   0/13
ENET.POLITICS   0/4
ENET.SOFT   0/11701
ENET.SYSOP   34335
ENET.TALKS   0/32
ENGLISH_TUTOR   0/2000
EVOLUTION   0/1335
FDECHO   0/217
FDN_ANNOUNCE   6368/7068
FIDONEWS   25122
FIDONEWS_OLD1   0/49742
FIDONEWS_OLD2   12/35949
FIDONEWS_OLD3   0/30874
FIDONEWS_OLD4   0/37224
FIDO_SYSOP   12973
FIDO_UTIL   0/180
FILEFIND   0/209
FILEGATE   0/212
Möte HAM, 16715 texter
 lista första sista föregående nästa
Text 3075, 788 rader
Skriven 2009-07-10 00:30:22 av Amsat List (1:323/120.0)
Ärende: [keps]  orb09190.amsa
=============================
[keps]  orb09190.amsa

Return-Path: <keps-bounces@amsat.org>
X-Rcpt: craig.healy@chowda.com
X-UIDL: 1247200287.6654

SB KEPS @ AMSAT  $ORB09190.O
Orbital Elements  09190.OSCAR

HR AMSAT ORBITAL ELEMENTS FOR OSCAR SATELLITES
FROM WA5QGD FORT WORTH,TX July 9, 2009
Send Subscribe/unsubscribe to KEPS at 
http://www.amsat.org/mailman/listinfo/keps
BID: ORB09190.O
TO ALL RADIO AMATEURS BT

Satellite: AO-07
Catalog number: 07530
Epoch time:      09190.19511418
Element set:     524
Inclination:      101.4249 deg
RA of node:       214.0624 deg
Eccentricity:    0.0011770
Arg of perigee:   223.6401 deg
Mean anomaly:     136.3740 deg
Mean motion:   12.53575855 rev/day
Decay rate:       -2.7e-07 rev/day^2
Epoch rev:           58547
Checksum:              276

Satellite: FO-29
Catalog number: 24278
Epoch time:      09189.81804486
Element set:      80
Inclination:      098.5519 deg
RA of node:       060.9453 deg
Eccentricity:    0.0349880
Arg of perigee:   294.4035 deg
Mean anomaly:     062.0970 deg
Mean motion:   13.52944050 rev/day
Decay rate:        4.9e-07 rev/day^2
Epoch rev:           63667
Checksum:              340

Satellite: SO-33
Catalog number: 25509
Epoch time:      09189.65393537
Element set:    0494
Inclination:      031.4324 deg
RA of node:       291.1091 deg
Eccentricity:    0.0354269
Arg of perigee:   166.2752 deg
Mean anomaly:     194.7795 deg
Mean motion:   14.28257456 rev/day
Decay rate:       3.24e-06 rev/day^2
Epoch rev:           55890
Checksum:              342

Satellite: RS-22
Catalog number: 27939
Epoch time:      09189.80617102
Element set:    0836
Inclination:      097.9430 deg
RA of node:       063.8873 deg
Eccentricity:    0.0014682
Arg of perigee:   066.1015 deg
Mean anomaly:     294.1731 deg
Mean motion:   14.63327136 rev/day
Decay rate:        3.8e-07 rev/day^2
Epoch rev:           30873
Checksum:              316

Satellite: VO-52
Catalog number: 28650
Epoch time:      09189.39079784
Element set:    0268
Inclination:      097.7422 deg
RA of node:       250.2712 deg
Eccentricity:    0.0026291
Arg of perigee:   322.4915 deg
Mean anomaly:     037.4467 deg
Mean motion:   14.81598574 rev/day
Decay rate:       -4.6e-07 rev/day^2
Epoch rev:           22578
Checksum:              343

/EX
SB KEPS @ AMSAT  $ORB09190.D
Orbital Elements  09190.MICROS

HR AMSAT ORBITAL ELEMENTS FOR THE MICROSATS
FROM WA5QGD FORT WORTH,TX July 9, 2009
Send Subscribe/unsubscribe to KEPS at 
http://www.amsat.org/mailman/listinfo/keps
BID: ORB09190.D
TO ALL RADIO AMATEURS BT

Satellite: AO-16
Catalog number: 20439
Epoch time:      09189.86720796
Element set:    0648
Inclination:      098.2798 deg
RA of node:       157.2839 deg
Eccentricity:    0.0011874
Arg of perigee:   104.4726 deg
Mean anomaly:     255.7776 deg
Mean motion:   14.31827854 rev/day
Decay rate:       -1.4e-07 rev/day^2
Epoch rev:           01625
Checksum:              351

Satellite: LO-19
Catalog number: 20442
Epoch time:      09189.64115808
Element set:    0565
Inclination:      098.2422 deg
RA of node:       164.2480 deg
Eccentricity:    0.0012994
Arg of perigee:   103.0034 deg
Mean anomaly:     257.2601 deg
Mean motion:   14.32063040 rev/day
Decay rate:       -1.7e-07 rev/day^2
Epoch rev:           01638
Checksum:              270

Satellite: AO-27
Catalog number: 22825
Epoch time:      09189.91748463
Element set:    0286
Inclination:      098.4363 deg
RA of node:       142.6580 deg
Eccentricity:    0.0008264
Arg of perigee:   193.5822 deg
Mean anomaly:     166.5146 deg
Mean motion:   14.29268469 rev/day
Decay rate:       -7.3e-07 rev/day^2
Epoch rev:           82301
Checksum:              338

Satellite: IO-26
Catalog number: 22826
Epoch time:      09189.69388125
Element set:    0014
Inclination:      098.4300 deg
RA of node:       143.1801 deg
Eccentricity:    0.0008538
Arg of perigee:   191.2947 deg
Mean anomaly:     168.8044 deg
Mean motion:   14.29520695 rev/day
Decay rate:       -2.5e-07 rev/day^2
Epoch rev:           82308
Checksum:              315

Satellite: GO-32
Catalog number: 25397
Epoch time:      09189.93787524
Element set:    0938
Inclination:      098.3259 deg
RA of node:       211.1124 deg
Eccentricity:    0.0001611
Arg of perigee:   147.8537 deg
Mean anomaly:     212.2736 deg
Mean motion:   14.23161256 rev/day
Decay rate:        6.0e-07 rev/day^2
Epoch rev:           57122
Checksum:              303

Satellite: NO-44
Catalog number: 26931
Epoch time:      09190.46249744
Element set:     211
Inclination:      067.0513 deg
RA of node:       006.9565 deg
Eccentricity:    0.0005865
Arg of perigee:   275.3236 deg
Mean anomaly:     084.7193 deg
Mean motion:   14.29560311 rev/day
Decay rate:      -2.15e-06 rev/day^2
Epoch rev:           40576
Checksum:              302

Satellite: SO-50
Catalog number: 27607
Epoch time:      09189.86851562
Element set:    0931
Inclination:      064.5594 deg
RA of node:       319.2392 deg
Eccentricity:    0.0064764
Arg of perigee:   200.5060 deg
Mean anomaly:     159.3457 deg
Mean motion:   14.71445462 rev/day
Decay rate:      -1.31e-06 rev/day^2
Epoch rev:           35186
Checksum:              321

Satellite: CO-55
Catalog number: 27844
Epoch time:      09189.54386392
Element set:    0618
Inclination:      098.7127 deg
RA of node:       198.4058 deg
Eccentricity:    0.0011005
Arg of perigee:   081.3811 deg
Mean anomaly:     278.8601 deg
Mean motion:   14.20645545 rev/day
Decay rate:        3.5e-07 rev/day^2
Epoch rev:           31229
Checksum:              319

